Погода в Терсейре

Португалия     38°43′25″N   27°12′41″W
темп.,
°C
ветер,
м/с
пор.,
м/с
влажн.,
%
обл.,
%
осадки,
мм/ч
давл.,
гПа
погр.,
м
11 апреля, вс
вс1100:00+15юв61098100 2.6 1008493
03:00+15юв61196100 1.4 1006587
06:00+15юв5997100 2.8 1005409
09:00+16ююв3594100 2.2 1004222
12:00+17ю3682100 2.9 1005463
15:00+18ююз477444 0.1 1004522
18:00+17ююз477852 0.1 1005460
21:00+16ююз358679 0.4 1006191
12 апреля, пн
пн1200:00+15ю36929 0.4 1007170
03:00+15ю499443 0.0 1006369
06:00+15ю4109393 0.1 1006435
09:00+16ю5108797 0.3 1006541
12:00+17ююз7128028 1.4 1007752
15:00+17ю7117792 0.5 1006707
18:00+16ююз6118674 0.7 1005643
21:00+15ююз6119491 0.6 1005572
13 апреля, вт
вт1300:00+15ююз71292100 2.1 1005660
03:00+15юз599393 1.7 1003484
06:00+14зюз699461 2.4 1005413
09:00+15з6993100 0.6 1008508
12:00+16з688528 0.9 1010646
15:00+16з688215 0.3 1011683
18:00+16з688417 0.4 1012567
21:00+15з489239 0.1 1014419
14 апреля, ср
ср1400:00+14з479250 0.1 1016377
03:00+14зсз469356 0.1 1016380
06:00+14зсз479296 0.1 1017452
09:00+14зсз479154 0.0 1018467
12:00+16зсз568320 0.1 1019638
15:00+17зсз4575100 0.0 1019709
18:00+16зсз347581 0.0 1019512
21:00+14з238773 0.0 1020121
15 апреля, чт
чт1500:00+14з2290100 0.0 102150
03:00+14з2291100 0.0 102065
06:00+14з2289100 0.0 102047
09:00+15зюз118267 0.0 102192
12:00+17зсз11695 0.0 1022648
15:00+18с116820 0.0 1022702
18:00+17в017453 0.0 1022422
21:00+16ю118147 0.0 1023150